Hourly Data Report for September 18, 2017

All times are specified in Local Standard Time (LST). Add 1 hour to adjust for Daylight Saving Time where and when it is observed.

KUGLUKTUK A
NUNAVUT

67°49'00.000" N
115°08'38.000" W
22.60 m
2300903
71938
YCO

Download Data

Hourly Data (September 2017)
Hourly Data Report for September 18, 2017
Temp Definition
°C
Dew Point Temp Definition
°C
Rel Hum Definition
%
Wind Dir Definition
10's deg

Wind Spd Definition
km/h
Visibility Definition
km
Stn Press Definition
kPa
Hmdx Definition


Wind Chill Definition


Weather Definition


TIME
00:00 Legend Double Dagger 5.9 5.4 96 29 14 16.1 100.67     Rain
01:00 Legend Double Dagger 5.8 4.9 94 31 16 16.1 100.71     Rain
02:00 Legend Double Dagger 5.4 4.9 97 28 8 19.3 100.75     Rain
03:00 Legend Double Dagger 5.2 4.8 97 28 14 9.7 100.78     Drizzle,Fog
04:00 Legend Double Dagger 5.1 4.7 97 29 13 9.7 100.81     Drizzle,Fog
05:00 Legend Double Dagger 5.0 4.8 99 29 14 4.8 100.84     Drizzle,Fog
06:00 Legend Double Dagger 5.0 4.5 96 34 19 4.8 100.87     Drizzle,Fog
07:00 Legend Double Dagger 5.3 4.4 94 34 16 19.3 100.90     LegendNANA
08:00 Legend Double Dagger 5.3 5.0 98 35 20 6.4 100.95     Fog
09:00 Legend Double Dagger 5.4 4.7 95 36 17 12.9 100.99     LegendNANA
10:00 Legend Double Dagger 5.3 5.0 98 1 16 6.4 101.03     Drizzle,Fog
11:00 Legend Double Dagger 5.4 5.2 98 2 18 8.1 101.07     Drizzle,Fog
12:00 Legend Double Dagger 5.6 5.2 98 3 16 4.8 101.11     Drizzle,Fog
13:00 Legend Double Dagger 5.4 5.0 98 2 19 6.4 101.15     Drizzle,Fog
14:00 Legend Double Dagger 5.5 5.2 98 3 19 6.4 101.18     Drizzle,Fog
15:00 Legend Double Dagger 5.5 5.1 98 3 18 4.8 101.21     Drizzle,Fog
16:00 Legend Double Dagger 5.5 5.4 99 4 13 1.6 101.23     Drizzle,Fog
17:00 Legend Double Dagger 5.4 4.9 96 7 19 8.1 101.24     Fog
18:00 Legend Double Dagger 5.1 3.8 91 8 22 12.9 101.29     LegendNANA
19:00 Legend Double Dagger 4.9 3.8 93 8 23 19.3 101.32     LegendNANA
20:00 Legend Double Dagger 4.5 4.1 97 8 23 4.8 101.34     Drizzle,Fog
21:00 Legend Double Dagger 4.4 3.6 94 7 19 9.7 101.36     Drizzle,Fog
22:00 Legend Double Dagger 4.4 3.8 96 7 22 8.1 101.39     Drizzle,Fog
23:00 Legend Double Dagger 4.4 4.0 97 8 17 6.4 101.41     Drizzle,Fog

Notes on Data Quality.

Legend

  • E = Estimated
  • M = Missing
  • NA = Not Available
  • ‡ = Partner data that is not subject to review by the National Climate Archives
Date modified: